Overview Statistics Trail Chart Weather Telemetry Raw packets
 

This is the latest recevied weather packets stored in our database for station/object K7KAR-2. If no packets are shown the sender has not sent any weather packets the latest 10 day(s).

<< 16 17 18 19 20 21 22 >>
Time Temp. Humidity Pressure Rain* Wind** Luminosity Snow
1788504684 17.78° C 35% 1009.6 hPa 0 mm - 0 W/m² -
1788504378 18.33° C 36% 1009.7 hPa 0 mm - 0 W/m² -
1788504073 18.33° C 34% 1009.4 hPa 0 mm - 0 W/m² -
1788503769 18.33° C 35% 1009.5 hPa 0 mm - 0 W/m² -
1788503464 18.33° C 35% 1009.5 hPa 0 mm - 0 W/m² -
1788503161 18.33° C 35% 1009.6 hPa 0 mm - 0 W/m² -
1788502855 18.33° C 35% 1009.6 hPa 0 mm - 0 W/m² -
1788502546 18.33° C 35% 1009.6 hPa 0 mm - 0 W/m² -
1788502242 18.89° C 35% 1009.7 hPa 0 mm - 0 W/m² -
1788501938 18.89° C 35% 1009.4 hPa 0 mm - 0 W/m² -
1788501634 18.33° C 35% 1009.6 hPa 0 mm - 0 W/m² -
1788501329 18.33° C 36% 1009.5 hPa 0 mm - 0 W/m² -
1788501024 18.89° C 35% 1009.6 hPa 0 mm - 0 W/m² -
1788500720 18.89° C 34% 1009.6 hPa 0 mm - 0 W/m² -
1788500416 19.44° C 34% 1009.5 hPa 0 mm - 0 W/m² -
1788500115 20° C 34% 1009.7 hPa 0 mm - 0 W/m² -
1788499811 20° C 32% 1009.7 hPa 0 mm - 0 W/m² -
1788499507 20° C 32% 1009.7 hPa 0 mm - 0 W/m² -
1788499203 20° C 31% 1009.6 hPa 0 mm - 0 W/m² -
1788498899 19.44° C 33% 1009.7 hPa 0 mm - 0 W/m² -
1788498598 18.89° C 36% 1009.8 hPa 0 mm - 0 W/m² -
1788498306 18.89° C 38% 1009.9 hPa 0 mm - 0 W/m² -
1788497989 20° C 37% 1009.9 hPa 0 mm - 0 W/m² -
1788497684 20.56° C 31% 1009.8 hPa 0 mm - 0 W/m² -
1788497379 20° C 32% 1009.7 hPa 0 mm - 0 W/m² -

* Rain latest hour (hover to see other rain measurements)
** Current wind speed in m/s (hover to see current wind gust speed)